Hourly Data Report for October 02, 2014

All times are specified in Local Standard Time (LST). Add 1 hour to adjust for Daylight Saving Time where and when it is observed.

BATHURST A
NEW BRUNSWICK

47°37'47.000" N
65°44'20.000" W
58.80 m
8100505
71574
ZBF

Download Data

Hourly Data (October 2014)
Hourly Data Report for October 2, 2014
Temp Definition
°C
Dew Point Temp Definition
°C
Rel Hum Definition
%
Wind Dir Definition
10's deg

Wind Spd Definition
km/h
Visibility Definition
km
Stn Press Definition
kPa
Hmdx Definition


Wind Chill Definition


Weather Definition


TIME
00:00 Legend Double Dagger 3.6 3.2 97 36 2 24.1 101.88     LegendNANA
01:00 Legend Double Dagger 2.8 2.4 97 31 3 24.1 101.85     LegendNANA
02:00 Legend Double Dagger 1.4 1.0 97 26 3 24.1 101.85     Clear
03:00 Legend Double Dagger 0.3 -0.3 96 23 4 24.1 101.84     LegendNANA
04:00 Legend Double Dagger 0.6 0.0 96 23 5 24.1 101.86     LegendNANA
05:00 Legend Double Dagger 0.2 -0.2 97 36 2 24.1 101.89     Clear
06:00 Legend Double Dagger 0.3 -0.1 97 25 7 24.1 101.92     LegendNANA
07:00 Legend Double Dagger 1.3 0.9 97 25 7 24.1 101.97     LegendNANA
08:00 Legend Double Dagger 6.2 5.8 97 22 4 24.1 102.04     Mainly Clear
09:00 Legend Double Dagger 9.5 7.5 87 7 4 24.1 102.08     LegendNANA
10:00 Legend Double Dagger 10.6 7.0 78 8 6 24.1 102.07     LegendNANA
11:00 Legend Double Dagger 11.0 5.8 70 4 9 24.1 102.02     Mostly Cloudy
12:00 Legend Double Dagger 12.3 5.7 64 5 10 24.1 101.97     LegendNANA
13:00 Legend Double Dagger 12.8 7.3 69 3 15 24.1 101.90     LegendNANA
14:00 Legend Double Dagger 12.4 7.1 70 2 8 24.1 101.88     Mostly Cloudy
15:00 Legend Double Dagger 12.9 4.4 56 5 13 24.1 101.85     LegendNANA
16:00 Legend Double Dagger 12.5 5.7 63 2 14 24.1 101.81     LegendNANA
17:00 Legend Double Dagger 11.4 5.1 65 3 13 24.1 101.82     Clear
18:00 Legend Double Dagger 9.5 5.7 77 2 6 24.1 101.83     LegendNANA
19:00 Legend Double Dagger 7.8 4.9 82 7 6 24.1 101.87     LegendNANA
20:00 Legend Double Dagger 4.6 3.6 93 36 1 24.1 101.91     Clear
21:00 Legend Double Dagger 2.4 1.7 95 36 1 24.1 101.89     LegendNANA
22:00 Legend Double Dagger 1.2 0.6 96 36 2 24.1 101.84     LegendNANA
23:00 Legend Double Dagger 4.0 3.3 95 29 3 24.1 101.85     Cloudy

Notes on Data Quality.

Legend

  • E = Estimated
  • M = Missing
  • NA = Not Available
  • ‡ = Partner data that is not subject to review by the National Climate Archives
Date modified: